This is the latest recevied weather packets stored in our database for station/object VR2R-13. If no packets are shown the sender has not sent any weather packets the latest 10 day(s).
| Time | Temp. | Humidity | Pressure | Rain* | Wind** | Luminosity | Snow |
|---|---|---|---|---|---|---|---|
| 1777531303 | 18.33° C | 83% | 914.9 hPa | 0 mm | - | - | - |
| 1777531244 | 18.33° C | 82% | 915 hPa | 0 mm | - | - | - |
| 1777531003 | 18.89° C | 81% | 915 hPa | 0 mm | - | - | - |
| 1777530884 | 19.44° C | 79% | 914.9 hPa | 0 mm | - | - | - |
| 1777530703 | 19.44° C | 81% | 914.9 hPa | 0 mm | - | - | - |
| 1777530524 | 19.44° C | 79% | 915 hPa | 0 mm | - | - | - |
| 1777530403 | 19.44° C | 81% | 915 hPa | 0 mm | - | - | - |
| 1777530164 | 19.44° C | 79% | 914.9 hPa | 0 mm | - | - | - |
| 1777530103 | 19.44° C | 81% | 915 hPa | 0 mm | - | - | - |
| 1777529804 | 20° C | 77% | 915 hPa | 0 mm | - | - | - |
| 1777529803 | 20° C | 77% | 915.1 hPa | 0 mm | - | - | - |
| 1777529503 | 19.44° C | 80% | 915.1 hPa | 0 mm | - | - | - |
| 1777529444 | 19.44° C | 80% | 915.2 hPa | 0 mm | - | - | - |
| 1777529203 | 19.44° C | 80% | 915.2 hPa | 0 mm | - | - | - |
| 1777529085 | 19.44° C | 81% | 915.2 hPa | 0 mm | - | - | - |
| 1777528904 | 19.44° C | 81% | 915.2 hPa | 0 mm | - | - | - |
| 1777528724 | 18.89° C | 83% | 915.2 hPa | 0 mm | - | - | - |
| 1777528603 | 19.44° C | 79% | 915.2 hPa | 0 mm | - | - | - |
| 1777528364 | 20° C | 81% | 915.2 hPa | 0 mm | - | - | - |
| 1777528303 | 20° C | 81% | 915.2 hPa | 0 mm | - | - | - |
| 1777528004 | 19.44° C | 82% | 915.2 hPa | 0 mm | - | - | - |
| 1777527284 | 19.44° C | 80% | 915.2 hPa | 0 mm | - | - | - |
| 1777526924 | 19.44° C | 84% | 915.3 hPa | 0 mm | - | - | - |
| 1777526564 | 18.33° C | 84% | 915.3 hPa | 0 mm | - | - | - |
| 1777526505 | 18.33° C | 84% | 915.3 hPa | 0 mm | - | - | - |
* Rain latest hour (hover to see other rain measurements)
** Current wind speed in m/s (hover to see current wind gust speed)